Theta_e
351 351 350 349 347 346 344 344 344 345 347 348 348 348 349 350 351 351 352 355 354 350 348 346 345 347 347 346 346 344 344 348 347 345 348 349 348 348 348 346 347 346 347 346 346 347 347 347 346 346 348 348 348 346 342 342 342 344 345 343 343 345 346
353 351 351 351 349 347 345 344 345 346 347 348 349 349 349 349 350 351 351 355 354 350 348 348 346 348 349 348 350 348 344 348 350 348 348 349 348 349 348 347 347 346 347 346 346 347 348 348 347 347 348 348 348 346 343 342 342 342 346 346 343 344 343
353 352 351 351 349 347 346 344 345 347 347 347 348 348 349 348 349 351 351 353 355 352 348 348 347 348 350 350 352 351 347 349 352 350 349 349 347 348 348 348 348 347 346 346 346 348 348 349 350 348 347 348 349 348 347 346 344 342 345 345 344 346 345
352 352 351 351 350 349 348 347 345 346 347 347 347 347 348 348 349 351 350 352 355 352 349 350 351 352 352 352 353 352 350 351 353 353 351 350 348 348 348 349 349 347 347 346 346 346 348 349 350 350 347 345 347 349 349 349 347 347 347 344 344 348 347
352 352 351 351 352 350 349 348 347 347 346 346 348 348 348 348 348 350 350 352 353 349 346 349 352 354 354 354 353 353 353 353 353 354 353 352 351 350 349 349 349 348 347 347 346 346 347 348 350 351 349 344 343 346 349 349 349 351 350 346 347 351 352
351 352 351 351 352 351 349 348 347 348 348 348 348 348 348 348 347 348 349 350 351 349 348 349 351 353 354 353 353 353 354 355 354 354 354 353 353 352 351 350 350 349 348 348 347 346 348 349 349 351 351 349 347 348 349 349 349 350 351 349 348 351 353
350 351 351 352 352 349 349 349 349 349 350 350 349 349 350 349 348 349 348 349 351 351 351 350 350 351 352 352 352 353 354 355 354 354 354 354 353 353 353 352 351 351 350 349 349 348 349 350 350 349 350 350 350 350 349 349 350 351 352 353 350 349 349
351 351 351 352 353 349 347 348 348 349 350 350 350 351 352 353 352 352 352 352 353 353 352 351 349 350 351 350 350 352 353 354 355 354 354 353 353 353 353 354 353 353 352 351 351 351 350 351 352 350 349 349 350 350 350 350 350 351 353 355 354 352 351
351 353 352 352 353 351 348 346 346 348 349 350 351 351 352 354 353 352 354 355 355 355 355 353 349 349 351 351 351 353 354 354 354 354 354 353 352 351 351 352 354 354 354 353 353 353 353 352 353 352 351 350 350 350 351 351 351 352 353 355 355 355 355
352 353 354 354 354 353 350 348 346 346 346 346 347 348 350 352 352 354 356 356 356 356 357 355 351 350 352 353 354 353 352 353 353 353 354 353 352 350 350 349 351 352 353 353 353 353 354 354 353 353 353 352 352 351 351 352 352 353 354 354 354 354 355
351 351 353 353 353 352 351 350 348 346 346 346 346 344 345 348 350 353 356 358 359 359 359 359 357 355 353 353 355 355 352 352 351 352 353 354 352 351 350 348 348 350 351 353 353 352 353 354 353 354 354 354 353 353 353 353 353 353 354 354 354 355 356
350 350 351 352 353 352 352 351 349 348 347 347 348 347 345 345 346 349 353 356 358 358 357 357 357 357 356 356 357 356 354 352 350 351 352 352 353 352 351 350 348 348 349 351 352 352 351 353 353 354 355 355 355 354 353 354 354 354 354 354 354 355 356
347 348 349 350 351 351 351 351 349 349 347 346 346 346 346 345 344 347 351 353 353 352 351 352 352 352 353 356 358 358 357 354 351 351 351 351 353 352 352 351 349 349 348 349 351 352 351 352 352 354 355 356 355 354 354 355 355 354 354 354 354 354 355
344 345 346 346 347 347 348 348 348 349 347 346 345 344 344 344 343 345 348 350 350 349 349 350 350 349 348 350 352 355 357 357 354 351 351 352 353 353 353 353 351 350 350 349 350 351 351 350 350 353 354 353 353 354 354 354 355 355 355 354 354 354 355
341 342 342 343 344 344 345 346 346 347 347 347 346 345 344 343 342 342 341 343 347 350 351 350 350 350 350 349 349 350 352 355 355 353 351 352 354 356 356 354 354 353 351 351 351 350 350 350 349 350 352 352 353 355 355 353 354 355 356 356 355 355 355
340 340 341 341 342 342 343 343 344 345 345 346 346 346 346 345 344 342 340 341 344 348 350 350 350 349 349 349 350 349 349 351 352 352 353 355 354 354 354 354 355 354 352 351 351 350 349 348 347 349 350 351 353 354 355 354 353 354 355 355 355 356 356
339 339 339 340 340 341 341 342 343 343 344 344 344 345 346 346 346 346 344 343 343 344 345 347 348 348 348 348 348 349 350 351 351 351 354 357 354 351 350 349 349 349 348 349 350 348 347 345 346 347 348 350 352 353 354 354 353 353 354 353 354 355 356
337 336 337 339 339 340 340 341 341 342 343 343 344 345 345 346 347 347 347 346 346 345 344 343 344 346 349 349 349 349 349 350 351 350 352 355 354 352 351 348 347 346 345 346 347 347 347 346 347 348 348 349 350 352 353 353 352 353 354 354 354 353 354
335 334 335 336 338 339 339 340 340 341 342 343 343 344 345 345 346 347 348 348 348 348 347 346 346 347 350 351 350 350 349 348 350 350 351 353 353 353 352 350 349 349 347 346 346 347 347 347 348 349 348 348 348 349 350 350 351 352 352 352 351 351 353
333 333 333 333 335 338 338 339 340 340 341 342 342 343 344 344 345 346 347 347 348 349 349 349 349 350 351 352 351 350 349 349 350 349 349 350 351 353 353 351 350 350 348 347 347 347 347 347 347 348 347 347 347 346 347 349 351 352 350 350 350 350 351
334 333 331 331 333 335 337 338 338 338 339 340 341 342 342 343 344 345 345 346 347 347 348 349 349 349 350 350 350 349 349 350 350 349 349 349 350 351 352 351 351 350 348 348 348 347 346 345 345 346 346 347 346 346 347 348 351 352 352 350 350 351 350
335 333 331 331 331 334 335 336 336 337 338 339 340 341 341 342 343 343 344 345 345 346 347 347 347 346 346 346 347 347 348 349 350 350 350 350 351 352 351 352 353 351 348 349 348 347 346 345 344 345 346 347 347 347 349 349 349 351 352 350 349 349 349
333 332 331 329 329 332 334 335 335 335 335 338 339 340 340 340 341 342 343 343 343 343 344 345 345 344 344 344 345 345 346 348 350 350 350 350 351 352 351 351 352 351 349 349 349 348 348 347 345 345 347 349 347 347 349 350 350 350 349 348 348 348 348
332 331 330 328 328 330 332 333 334 334 334 335 336 338 339 339 339 340 340 340 340 341 341 342 342 342 343 343 343 344 344 345 347 348 348 349 350 351 350 349 350 350 350 349 349 349 350 349 347 345 347 350 349 347 349 351 350 348 346 346 347 348 349
331 329 327 326 326 328 329 330 332 333 333 333 333 334 336 336 337 337 337 337 337 337 338 339 339 340 340 341 342 342 343 343 344 344 344 344 344 345 345 345 345 346 347 348 349 350 351 349 347 346 348 349 349 349 349 350 349 347 346 346 347 348 349
330 328 326 325 324 326 327 327 329 331 332 332 332 332 332 332 332 332 332 333 333 333 334 334 335 337 338 339 340 340 341 341 342 342 342 342 342 342 343 342 341 341 343 343 345 347 349 349 347 347 348 349 349 349 350 349 349 348 348 347 348 348 348
326 326 325 324 323 323 323 324 327 329 330 330 330 331 331 330 329 328 328 329 329 328 328 328 329 331 333 336 337 338 338 338 339 339 340 340 341 341 341 340 339 339 338 338 338 341 345 347 347 348 348 348 349 349 349 349 349 349 349 348 348 348 347
325 324 324 323 322 321 320 321 323 325 327 329 329 329 330 330 329 329 329 329 328 327 326 323 322 323 324 327 329 331 332 333 334 336 337 338 339 339 340 340 340 340 339 339 339 341 343 344 345 346 347 347 348 348 348 348 348 347 347 346 346 345 345
327 325 324 323 321 320 319 320 320 321 324 326 327 328 329 330 331 331 330 330 329 328 326 323 320 319 319 318 319 320 323 325 327 329 331 333 334 336 337 338 340 341 341 342 342 342 343 343 344 344 344 344 344 344 344 344 343 344 344 343 343 344 344
326 326 326 324 323 321 320 319 319 319 320 319 320 322 325 326 328 330 329 328 327 325 324 323 322 321 322 321 319 317 316 317 319 322 326 327 328 330 333 335 337 339 339 341 342 342 342 342 342 343 343 343 343 342 343 343 342 342 343 342 343 343 343
325 325 325 324 323 323 322 321 320 320 319 318 315 315 316 319 324 328 329 328 326 324 323 322 322 323 324 323 322 321 320 317 316 317 319 321 324 327 330 333 335 338 339 339 340 340 340 340 340 341 340 340 340 340 339 339 340 341 341 341 341 341 342
324 324 325 325 325 325 324 324 323 322 321 319 318 316 316 315 318 325 329 330 328 327 327 325 324 325 326 324 322 321 321 320 319 318 318 319 320 322 325 329 331 333 335 336 336 336 336 337 336 337 337 336 336 336 334 334 336 337 337 338 338 338 337
325 326 327 327 327 327 326 327 326 325 323 320 318 318 318 318 317 320 326 329 329 329 330 329 328 328 328 327 325 323 321 320 318 316 316 318 320 321 322 324 327 328 331 332 333 333 334 334 333 333 333 332 332 332 331 330 331 332 331 332 333 332 331
327 328 328 328 329 329 328 328 328 327 325 323 319 316 315 316 315 313 316 320 323 325 328 329 329 329 329 327 326 326 325 323 321 318 314 313 316 318 319 320 322 324 327 330 331 332 332 332 332 331 331 331 331 331 330 328 328 327 327 328 328 325 322
329 329 329 329 329 329 329 329 328 328 327 326 324 320 316 315 313 310 308 309 312 317 323 327 329 329 328 328 328 327 327 325 324 324 321 316 313 312 314 316 316 317 319 322 326 329 330 331 332 332 332 331 330 328 325 322 319 319 319 321 322 319 316
329 329 328 328 328 329 329 329 329 328 328 327 327 325 322 319 316 313 311 310 309 310 315 323 328 328 325 324 323 325 326 325 323 323 323 322 320 315 312 311 312 312 312 313 314 317 320 322 322 323 322 320 318 316 314 313 311 311 311 312 314 314 313
328 329 328 328 328 328 328 328 328 327 327 328 328 327 326 324 322 321 318 315 314 313 312 315 321 325 326 323 319 319 323 324 323 323 322 322 323 323 319 316 314 312 311 312 311 310 310 311 311 311 311 311 310 310 309 309 309 308 308 308 308 309 309
328 328 328 328 328 328 328 328 328 327 326 326 327 328 328 326 325 324 323 320 317 318 317 316 318 322 324 321 318 318 320 322 323 324 323 322 324 325 325 324 324 319 313 312 313 312 311 310 310 310 310 310 311 310 310 309 309 308 308 308 308 310 309
Wind_Speed
15 18 19 22 23 21 20 22 22 22 21 20 20 20 19 18 18 17 18 18 17 15 16 16 17 19 20 20 20 19 18 17 16 16 16 15 15 14 14 13 13 13 12 11 11 11 11 11 11 10 10 11 11 10 10 10 10 9 9 9 9 10 10
12 16 18 18 18 20 20 21 22 21 21 20 19 20 20 19 18 17 17 19 18 16 15 16 17 19 20 20 20 20 19 19 18 17 17 16 16 15 14 14 14 14 14 12 11 11 11 12 12 11 11 11 11 11 11 11 11 10 10 10 10 10 11
9 13 16 14 13 17 19 19 22 21 20 20 20 20 20 19 18 18 18 18 19 18 17 17 17 19 21 21 20 20 20 20 19 18 18 17 17 16 15 15 14 14 14 14 12 12 12 12 12 12 12 12 11 11 11 11 11 11 11 11 10 10 11
4 8 11 13 14 17 20 19 19 21 20 19 20 19 20 19 18 18 18 18 20 19 17 17 19 19 19 20 20 20 20 20 19 19 18 17 16 17 16 16 15 15 15 15 14 13 12 12 12 13 14 13 13 13 12 12 12 11 12 11 11 11 12
3 4 5 9 11 14 19 19 16 18 20 18 18 18 18 19 18 18 19 19 19 19 18 18 19 18 18 19 20 19 20 20 20 19 18 17 17 17 17 17 16 16 15 15 15 15 15 14 13 13 14 14 14 14 14 13 13 12 13 12 11 11 12
5 5 5 5 8 10 14 13 11 15 16 16 17 17 17 18 18 19 19 19 19 18 19 20 19 19 18 19 19 19 19 20 20 20 19 18 17 17 17 17 17 17 17 16 16 16 16 16 15 14 14 14 13 13 14 14 13 13 14 14 13 12 12
5 3 4 3 6 10 12 10 9 9 10 12 13 14 14 14 15 17 18 18 18 18 19 19 20 20 18 18 19 19 18 19 20 20 20 19 18 18 18 17 17 17 17 17 17 17 17 17 17 16 16 15 14 14 14 15 15 14 14 15 15 14 13
3 3 4 3 4 8 12 11 12 10 6 7 8 9 11 11 12 14 15 15 15 16 18 18 18 19 18 18 18 18 17 18 19 20 19 19 19 19 19 18 18 17 17 17 17 17 17 17 17 17 17 17 16 15 15 16 17 16 15 15 15 14 14
4 4 4 4 3 5 8 11 12 12 10 7 7 9 9 9 11 13 12 13 14 14 17 19 19 18 18 18 18 17 17 17 18 18 19 20 20 20 20 19 18 18 17 17 17 17 17 18 17 17 18 18 18 18 17 16 17 17 16 16 16 15 14
5 5 5 5 4 3 3 5 8 11 13 11 11 12 9 8 11 13 11 12 13 14 15 17 18 18 18 19 19 18 17 17 18 18 18 19 20 20 20 20 19 18 18 18 17 17 17 17 18 18 18 19 19 19 19 18 18 17 16 16 17 17 16
6 6 6 6 5 5 4 2 2 7 10 13 14 16 14 11 12 13 12 11 11 13 15 15 15 16 18 19 20 20 19 18 18 18 18 19 20 20 20 20 20 19 19 18 18 18 17 17 18 18 19 20 20 20 20 20 19 18 17 17 16 17 16
7 7 8 7 6 6 6 5 2 1 6 10 12 15 17 16 15 15 14 13 13 15 16 15 15 16 16 17 19 20 21 20 19 19 19 19 19 20 20 20 20 20 19 19 19 18 18 18 18 18 19 20 20 20 20 20 20 19 19 18 17 17 16
12 12 11 10 10 9 8 7 6 4 1 6 9 11 13 16 18 17 15 13 14 15 16 16 16 16 16 16 17 18 20 21 21 20 19 19 19 19 19 19 19 19 19 18 18 18 18 19 18 19 20 20 21 21 21 20 20 20 20 19 18 18 17
16 15 14 13 12 12 11 10 8 6 3 2 6 9 10 12 15 18 17 14 12 11 12 14 15 16 16 18 18 18 19 20 20 21 20 19 18 18 18 18 18 20 20 19 19 18 17 18 19 19 21 21 20 22 22 21 20 20 21 20 19 19 18
15 14 14 13 12 11 11 10 9 7 4 2 1 5 9 11 13 16 18 18 14 9 8 10 12 13 15 17 18 19 20 20 21 22 21 20 19 19 19 18 17 19 22 22 22 22 20 19 19 19 21 19 18 19 21 21 21 20 20 20 20 19 19
14 13 12 12 11 11 10 9 9 8 5 3 2 2 6 9 11 13 16 18 16 12 8 7 9 11 12 14 16 18 19 21 22 21 18 20 23 24 24 22 19 21 23 23 23 24 23 22 20 20 20 20 19 19 20 21 21 21 22 22 20 18 17
15 14 13 11 10 10 10 10 9 8 7 6 4 1 4 6 8 10 13 16 18 18 15 12 11 11 12 14 15 17 18 19 21 21 19 21 26 27 26 25 23 24 24 23 23 23 23 22 22 21 20 20 20 20 20 22 22 21 23 23 22 20 17
14 14 14 13 11 10 10 10 10 9 9 8 7 5 1 3 4 5 9 13 15 18 20 21 19 16 14 15 16 17 19 20 21 23 23 22 23 24 23 23 23 23 23 22 23 24 23 21 21 22 22 22 21 20 19 21 23 24 23 23 23 22 20
12 13 15 13 12 11 11 11 10 11 10 9 8 6 3 1 2 3 5 8 11 13 15 18 18 16 14 15 16 17 18 19 21 23 24 23 21 22 23 22 21 22 21 20 22 23 24 23 22 23 24 24 24 22 19 19 21 23 24 23 22 23 22
10 13 15 14 12 12 13 12 11 11 10 8 7 7 5 3 2 2 2 3 7 9 11 12 13 13 12 13 14 15 16 18 20 22 25 25 23 22 23 22 21 21 21 20 21 22 23 24 24 24 25 26 27 25 23 20 18 19 20 21 21 21 21
7 11 13 12 11 12 13 13 12 11 9 8 8 8 8 7 5 3 2 2 2 4 5 6 7 8 9 10 12 14 15 17 20 23 25 24 22 22 22 20 20 22 22 21 22 23 25 25 24 23 24 25 25 24 24 24 21 18 18 18 18 18 20
4 8 12 11 8 9 12 14 13 13 11 8 8 9 10 10 9 7 6 4 3 2 2 1 1 1 3 5 8 11 14 15 16 19 20 19 19 21 21 18 18 22 22 22 23 25 26 26 24 24 24 25 25 23 22 24 24 21 19 18 17 17 20
3 5 9 9 8 9 11 12 13 14 13 10 9 9 11 12 12 11 10 9 8 7 7 7 7 7 7 6 3 2 7 11 12 15 16 15 15 17 17 16 16 18 20 22 24 26 27 26 25 24 24 25 25 24 22 22 23 22 20 20 19 19 19
3 5 7 8 9 10 11 11 12 13 13 13 11 10 9 10 11 12 12 13 13 13 13 14 14 13 12 11 10 8 4 2 4 8 10 12 13 14 14 15 15 15 17 20 23 25 27 26 25 25 25 25 23 23 23 23 23 22 21 21 21 20 20
5 6 8 9 9 11 11 11 11 11 12 14 14 12 10 10 11 13 14 16 17 17 17 17 17 15 13 12 11 11 9 7 4 1 2 4 6 7 9 9 8 8 11 16 22 27 29 26 24 23 23 23 20 19 21 22 22 21 20 19 20 20 20
7 7 8 9 9 10 10 10 10 11 11 12 13 13 12 13 15 17 17 17 18 19 19 18 17 16 14 12 11 10 9 7 6 5 3 2 1 1 2 2 2 2 3 6 11 17 23 24 20 19 20 21 19 18 18 18 18 18 17 16 16 17 18
9 8 8 10 10 9 10 10 10 10 11 11 11 11 11 14 17 18 18 17 18 18 18 17 16 15 14 12 11 10 10 9 8 7 6 4 4 4 4 2 2 3 4 6 6 3 5 12 14 15 18 20 20 18 17 16 15 15 14 13 14 14 15
11 10 10 11 11 10 10 10 10 10 11 11 11 10 10 12 14 15 15 15 16 15 15 16 16 15 14 13 12 11 10 10 9 8 7 5 4 3 3 2 1 3 4 6 6 5 2 4 8 9 10 12 12 12 13 13 13 13 13 13 13 14 15
12 11 11 11 10 10 10 10 10 10 10 10 10 10 10 11 13 13 13 13 13 12 13 14 15 15 15 14 13 12 11 10 9 9 9 8 7 6 4 2 1 2 3 4 4 3 2 4 6 6 7 7 7 8 10 11 12 13 14 14 14 15 17
12 11 11 11 11 11 11 10 11 11 10 10 10 11 11 11 13 13 13 13 12 11 12 13 13 14 15 14 14 14 13 12 11 10 10 10 11 10 9 7 5 3 2 2 2 2 3 4 5 6 6 7 7 8 9 10 10 10 11 11 12 12 13
12 11 11 12 12 12 12 11 11 11 11 11 10 10 11 12 13 14 13 12 11 11 12 12 13 13 14 13 14 14 14 14 13 12 11 11 11 11 12 11 9 7 6 4 3 1 1 2 3 4 5 4 4 5 4 4 5 6 6 8 8 9 9
11 11 11 12 12 12 11 11 11 11 11 11 10 10 10 10 11 13 13 11 9 10 11 12 12 13 13 13 13 13 13 13 13 12 12 11 10 10 10 11 11 10 9 8 7 7 6 4 3 2 1 1 1 2 3 3 2 3 3 5 6 6 6
11 10 10 10 10 10 10 10 10 10 10 11 10 10 10 9 9 11 11 9 8 8 9 10 11 11 11 11 11 12 12 13 13 13 13 12 11 10 9 10 9 9 9 9 9 10 9 8 7 7 7 6 5 5 6 4 3 2 2 2 3 3 4
11 10 10 9 9 9 9 9 10 9 9 10 10 10 10 10 9 8 8 8 8 8 9 10 10 10 10 10 10 11 11 11 12 13 13 12 11 11 11 10 10 9 10 10 9 10 10 9 8 8 8 7 6 5 5 5 5 5 4 4 4 5 6
10 9 9 8 8 9 9 9 9 9 9 9 10 10 10 10 10 10 9 8 8 8 10 10 10 10 9 9 9 9 9 9 9 10 10 11 11 11 11 11 10 10 10 9 8 8 8 7 6 5 5 5 5 5 5 7 7 7 7 7 7 8 8
9 9 8 8 7 8 8 9 8 9 9 9 9 10 10 11 10 10 10 9 9 9 9 10 10 9 9 8 8 8 8 8 7 7 7 7 8 9 11 11 11 10 9 9 8 7 6 5 4 4 4 5 5 6 7 8 8 8 8 8 8 8 8
9 8 8 7 7 7 7 7 6 7 8 8 8 8 9 10 10 10 9 8 9 9 9 9 10 9 8 8 8 9 9 7 6 7 6 5 5 6 7 10 11 10 9 8 8 7 7 6 5 5 5 5 6 6 7 7 8 8 8 8 8 8 8
8 8 7 7 7 6 6 6 5 5 6 7 7 7 7 7 7 8 8 7 7 7 6 7 8 7 6 6 7 8 8 6 6 6 5 5 5 4 4 7 10 10 9 8 8 8 7 6 6 5 5 6 6 6 7 7 8 8 8 8 8 8 7
Wind_Direction
207 211 213 206 203 205 195 187 191 189 187 187 186 190 191 190 189 185 186 196 204 205 205 208 208 206 204 201 200 199 198 200 203 203 201 201 200 200 204 204 203 206 208 214 216 215 216 216 213 212 222 233 233 229 229 229 229 228 232 234 229 235 240
181 202 210 203 202 210 201 189 190 189 188 189 188 191 192 193 194 190 188 196 206 211 210 212 211 208 207 205 203 202 200 199 201 202 202 204 204 202 205 207 208 209 208 209 214 214 215 218 217 213 216 227 234 238 237 233 234 231 230 236 237 240 247
153 183 198 202 205 213 211 200 194 191 190 192 192 193 193 195 197 193 192 197 205 212 214 215 214 210 209 207 205 205 203 200 201 203 202 205 207 206 208 209 208 211 211 209 210 212 214 219 222 220 219 220 225 238 243 237 236 237 234 238 241 243 251
127 163 186 199 199 208 219 216 203 195 195 195 195 196 197 197 196 196 199 199 204 212 216 216 214 209 207 207 206 208 207 203 202 205 205 206 209 208 210 212 210 210 212 212 212 212 214 217 223 228 230 226 220 225 235 235 234 236 238 241 241 243 252
67 120 163 208 204 204 214 218 217 207 200 199 200 198 199 201 199 201 203 200 206 215 215 214 213 205 204 208 207 207 210 207 205 206 207 207 210 210 210 213 213 212 212 213 214 215 216 215 217 227 236 236 228 224 229 232 230 231 236 241 239 239 247
40 104 129 199 202 186 189 199 218 218 208 205 208 207 206 204 201 203 207 205 206 210 208 209 209 205 205 209 208 206 207 209 209 208 209 209 210 211 212 214 215 216 216 215 215 217 219 219 216 219 228 234 231 226 228 231 230 228 235 242 239 235 236
11 71 110 162 196 188 176 157 157 189 206 205 210 218 218 210 203 204 208 208 206 207 207 208 210 211 208 207 211 208 204 208 211 209 210 211 212 213 215 216 217 218 219 218 219 219 220 222 220 219 222 226 227 227 227 228 228 226 230 237 240 239 235
4 33 96 130 182 199 197 177 153 148 166 187 203 222 222 214 210 208 209 209 208 210 211 211 214 214 210 208 212 211 208 212 213 210 211 213 215 215 215 216 217 218 219 220 221 221 221 223 223 222 223 224 226 227 227 229 231 230 227 231 238 241 239
25 43 86 116 134 177 204 205 188 171 166 173 189 202 210 216 212 211 217 216 213 216 216 216 219 217 212 212 212 209 212 217 217 213 212 214 217 218 217 218 217 217 218 219 221 222 222 222 223 224 224 224 225 226 226 227 231 233 229 229 235 237 237
37 46 70 83 90 121 164 206 214 205 199 208 218 212 212 219 211 210 219 220 220 222 220 222 224 220 215 213 212 212 215 218 220 218 216 217 219 219 220 220 219 219 220 220 221 222 222 223 223 225 225 225 225 226 227 227 229 233 232 232 237 239 240
49 52 62 67 76 90 88 92 235 235 221 222 231 229 224 223 219 218 218 218 222 222 218 218 220 218 218 217 215 216 216 219 224 223 222 221 221 221 221 221 221 221 222 222 223 222 223 224 223 224 226 226 226 226 227 229 229 231 233 235 238 241 242
46 50 50 50 61 78 74 70 71 256 234 221 221 225 225 221 219 222 222 222 226 228 225 223 218 216 218 220 221 220 219 221 223 224 226 225 225 224 223 222 222 223 223 224 224 224 224 225 226 226 226 227 228 229 229 230 230 232 234 235 237 240 242
47 55 58 55 58 68 73 73 78 80 219 228 223 225 226 220 214 215 217 222 230 236 235 234 234 233 228 224 224 225 225 225 225 227 229 227 227 227 225 224 224 224 225 225 226 227 227 228 229 229 228 228 230 230 229 229 231 233 234 236 236 237 240
48 54 60 61 59 60 61 63 67 71 68 248 240 233 231 230 226 219 216 219 226 233 234 233 236 242 242 239 236 234 232 232 229 228 229 229 228 227 226 225 224 224 223 223 224 225 228 232 234 234 236 238 236 232 229 228 230 233 234 236 237 237 238
45 49 55 58 57 55 55 56 55 53 51 39 285 237 229 234 238 232 227 224 222 218 223 231 233 238 244 247 249 249 246 242 236 228 228 230 226 222 221 220 223 227 224 221 221 221 221 226 232 237 242 243 240 238 236 232 230 232 233 234 235 237 239
46 47 52 57 59 60 61 60 60 58 54 46 24 249 233 237 245 243 234 229 225 215 204 222 243 250 252 253 257 259 258 256 250 241 236 231 225 223 223 222 227 233 231 228 228 227 227 229 230 233 239 241 240 239 240 237 234 234 236 236 235 234 237
37 37 45 53 56 60 63 62 62 61 57 49 38 358 239 243 253 256 246 239 238 232 227 240 260 268 270 269 264 261 260 259 254 250 247 238 231 231 233 233 237 239 236 235 236 236 237 239 236 232 233 239 242 241 242 242 239 236 237 239 239 236 235
33 29 36 45 50 54 56 56 57 56 55 50 43 33 313 246 252 264 255 247 245 239 236 243 255 263 270 271 266 261 260 258 254 252 251 245 239 239 241 240 241 241 238 236 237 238 240 240 238 233 230 233 237 238 245 249 242 236 234 235 238 238 240
48 36 31 30 41 52 51 49 50 50 51 52 51 52 56 191 212 234 246 242 241 237 232 233 241 252 261 264 262 259 258 257 255 254 253 251 247 244 242 241 240 240 239 236 233 235 237 238 238 236 234 235 236 236 247 257 252 245 242 241 243 243 243
57 53 40 26 30 47 53 51 49 51 56 61 68 75 74 81 143 178 196 227 229 228 227 226 232 242 251 258 263 262 258 259 260 257 254 253 252 249 246 245 245 244 242 239 235 233 235 238 240 241 241 240 240 241 246 254 259 257 252 251 252 252 250
60 68 65 49 38 45 53 53 49 49 53 60 68 72 68 65 74 110 126 127 181 201 215 224 234 249 259 263 265 262 258 260 261 257 252 251 253 253 250 247 248 249 245 242 241 240 239 241 243 244 243 240 239 241 244 247 254 261 262 258 258 258 256
73 75 76 72 61 54 56 55 51 47 45 52 62 65 70 72 71 75 85 89 98 124 150 174 198 236 258 255 253 250 245 244 248 250 246 243 246 252 251 247 250 254 252 248 249 249 247 245 242 240 239 238 240 243 244 245 247 253 261 265 263 260 257
72 70 74 77 74 67 64 63 60 53 50 54 60 62 67 73 76 77 76 75 75 82 88 91 89 84 81 84 95 205 230 230 234 240 242 240 241 247 251 249 250 256 257 254 253 252 250 246 241 237 234 234 237 239 240 241 243 246 253 260 262 259 256
84 79 81 80 75 71 71 71 69 63 56 55 59 63 65 67 73 76 75 75 76 76 78 79 78 76 74 74 74 76 85 151 218 237 246 250 251 255 259 256 252 256 259 257 254 253 249 244 237 232 231 233 237 240 241 242 245 247 250 254 256 254 254
104 96 88 83 78 75 74 74 73 70 63 56 56 62 69 74 78 76 74 75 76 75 75 74 72 71 69 67 63 62 65 72 79 119 227 246 254 261 266 263 262 266 267 266 260 249 240 233 230 229 231 236 237 236 238 241 243 245 247 251 253 251 251
106 98 90 86 82 77 75 75 76 75 72 65 62 64 68 78 86 86 81 78 76 75 75 74 73 71 70 67 63 60 60 60 54 53 63 67 40 353 312 294 318 337 313 295 273 245 224 217 223 228 230 232 230 224 225 230 232 235 242 248 250 250 250
107 99 94 89 83 77 75 76 76 77 77 74 71 70 68 74 82 83 80 79 78 77 77 77 75 74 72 72 72 69 67 64 55 48 45 38 26 20 19 27 56 61 56 45 28 1 200 198 208 214 211 211 214 213 214 218 221 229 239 244 245 249 252
107 102 98 90 85 81 78 77 76 76 76 74 73 72 70 71 73 71 70 71 71 73 79 81 79 76 74 73 74 74 72 69 65 65 66 61 48 33 20 18 85 93 77 70 63 47 51 192 211 220 213 204 203 208 215 221 226 236 246 250 252 256 259
107 103 99 92 88 85 81 79 76 73 72 76 77 74 73 73 71 66 64 66 65 68 76 79 78 75 70 66 65 66 67 65 63 64 69 71 72 77 81 83 114 120 88 86 106 125 171 218 237 253 256 249 244 244 245 246 249 256 263 265 266 267 268
110 106 101 96 92 88 83 80 76 72 71 78 86 87 85 81 75 66 60 61 64 67 71 74 73 69 64 59 56 54 55 58 60 60 62 65 67 69 72 76 88 101 100 112 164 203 218 230 242 251 254 256 257 254 255 258 262 267 272 275 276 276 276
112 108 103 99 94 90 86 83 79 76 71 69 76 86 90 89 84 73 60 52 55 60 62 66 68 66 62 60 57 53 48 48 50 53 57 60 63 63 61 61 68 74 77 86 101 120 207 235 250 258 260 262 257 254 265 280 283 281 280 284 285 283 280
116 112 106 102 97 93 90 86 82 81 77 70 66 68 74 82 86 81 68 51 46 53 56 56 58 61 61 59 58 59 58 53 50 50 53 54 55 59 59 55 55 58 62 69 76 73 71 74 78 79 81 74 50 33 33 19 331 303 291 285 283 278 276
119 114 110 107 103 98 95 89 83 80 79 77 73 67 64 63 70 78 78 68 57 56 59 59 57 55 56 56 55 55 56 57 55 54 57 60 58 57 60 59 53 49 52 59 67 70 70 72 75 78 80 77 70 66 67 63 42 23 7 311 289 293 297
124 120 115 111 109 107 102 96 89 82 76 74 73 71 69 64 59 63 73 80 79 72 68 66 62 56 53 52 51 50 50 50 49 47 49 56 62 63 63 61 58 56 56 55 59 66 71 73 74 74 72 66 58 56 53 36 17 9 358 336 325 335 341
131 128 124 119 117 114 107 101 95 87 79 72 67 64 63 62 60 56 54 59 69 76 74 67 55 49 49 47 44 45 46 46 50 51 45 43 50 59 62 60 56 57 58 56 57 63 66 66 64 56 41 26 11 0 354 351 349 347 341 331 325 327 331
139 136 133 128 122 115 107 102 97 90 84 75 65 60 56 54 55 56 53 50 51 59 71 75 65 50 43 45 48 52 48 40 46 62 62 53 47 48 52 54 50 50 55 57 59 63 61 53 45 22 4 4 2 358 358 355 352 351 346 339 334 330 327
149 146 145 139 131 123 112 101 92 87 85 79 70 64 57 50 48 49 49 51 52 49 52 66 71 58 40 35 43 55 56 43 35 43 49 55 59 51 42 35 28 29 42 50 50 56 60 56 52 45 41 41 35 25 20 15 9 7 2 357 354 347 339
157 157 155 148 141 134 125 114 104 92 85 80 75 70 63 51 44 42 37 36 46 51 47 49 55 51 38 27 27 37 45 42 36 33 25 24 38 44 33 16 2 359 14 34 39 39 40 44 51 52 49 48 42 32 27 23 16 14 14 13 11 2 351